This is the latest recevied weather packets stored in our database for station/object KG7BDA. If no packets are shown the sender has not sent any weather packets the latest 10 day(s).
| Time | Temp. | Humidity | Pressure | Rain* | Wind** | Luminosity | Snow |
|---|---|---|---|---|---|---|---|
| 1778176645 | 19.44° C | 37% | 1017.4 hPa | 0 mm | - | - | - |
| 1778176285 | 19.44° C | 38% | 1017.4 hPa | 0 mm | - | - | - |
| 1778175925 | 19.44° C | 37% | 1017.5 hPa | 0 mm | - | - | - |
| 1778175565 | 20° C | 38% | 1016.7 hPa | 0 mm | - | - | - |
| 1778175205 | 19.44° C | 40% | 1016.8 hPa | 0 mm | - | - | - |
| 1778174991 | 19.44° C | 37% | 1016.8 hPa | 0 mm | - | - | - |
| 1778174845 | 19.44° C | 37% | 1016.8 hPa | 0 mm | - | - | - |
| 1778174485 | 19.44° C | 37% | 1016.8 hPa | 0 mm | - | - | - |
| 1778174125 | 18.89° C | 37% | 1016.8 hPa | 0 mm | - | - | - |
| 1778173804 | 18.89° C | 40% | 1016.9 hPa | 0 mm | - | - | - |
| 1778173765 | 18.89° C | 40% | 1016.9 hPa | 0 mm | - | - | - |
| 1778173405 | 18.89° C | 42% | 1017 hPa | 0 mm | - | - | - |
| 1778173045 | 18.33° C | 41% | 1016.8 hPa | 0 mm | - | - | - |
| 1778172685 | 18.89° C | 42% | 1016.9 hPa | 0 mm | - | - | - |
| 1778172326 | 18.33° C | 41% | 1016.8 hPa | 0 mm | - | - | - |
| 1778171605 | 18.33° C | 41% | 1016.9 hPa | 0 mm | - | - | - |
| 1778171245 | 18.33° C | 42% | 1017 hPa | 0 mm | - | - | - |
| 1778170885 | 17.78° C | 44% | 1017 hPa | 0 mm | - | - | - |
| 1778170525 | 17.78° C | 44% | 1017 hPa | 0 mm | - | - | - |
| 1778170165 | 17.78° C | 44% | 1017 hPa | 0 mm | - | - | - |
| 1778169805 | 17.78° C | 45% | 1017 hPa | 0 mm | - | - | - |
| 1778169445 | 17.22° C | 43% | 1017 hPa | 0 mm | - | - | - |
| 1778169085 | 17.22° C | 44% | 1017.2 hPa | 0 mm | - | - | - |
| 1778168725 | 17.22° C | 42% | 1017.1 hPa | 0 mm | - | - | - |
| 1778168364 | 17.22° C | 46% | 1017.1 hPa | 0 mm | - | - | - |
* Rain latest hour (hover to see other rain measurements)
** Current wind speed in m/s (hover to see current wind gust speed)